Zurück zum Katalog

COSMOS 2485

GLONASS

AktivNavigationMEO
NORAD 39155·PAYLOAD·🇷🇺 Russia

Gestartet Apr 26, 2013 von Plesetsk Cosmodrome

Loading…

Nächste Überflüge (nächste 24 Stunden)

TLE

AktuellSource: CelesTrak SupGP

Epoche: Sep 13, 2026, 23:59 UTC

1 39155C 13019A   26256.99979167  .00000000  00000+0  00000+0 0  2569
2 39155  65.4746  70.6263 0023388 225.9393  80.6476  2.13103220    14

Verfolge COSMOS 2485 in Echtzeit mit AllMySat

Download on the App Store